This demonstration page uses our WeatherBlox Daily Observations layout. Learn more.

Left ArrowRight Arrow

31.84235, -102.49876

Hourly Observations for May 31, 2015

Temp ( °F °C ) Dew Point ( °F °C ) Humidity (%) Winds ( mph kmh ) Pressure ( in mb ) Visibility ( mi km ) Precip ( " mm )
12:53 am 00:53 Clear with Mist and Fog 62 16.7 58 14.4 86 86 E 8 13 30.11 1020 6 10 0.00 0.00
1:53 am 01:53 Clear 62 16.7 58 14.4 86 86 SE 5 7 30.11 1020 9 14 0.00 0.00
2:53 am 02:53 Clear 61 16.1 58 14.4 90 90 SE 5 7 30.11 1020 8 13 0.00 0.00
3:53 am 03:53 Clear 60 15.6 57 13.9 90 90 E 3 6 30.09 1019 7 11 0.00 0.00
4:53 am 04:53 Clear with Mist and Fog 60 15.6 57 13.9 90 90 Calm 30.08 1019 6 10 0.00 0.00
5:53 am 05:53 Mostly Clear with Mist and Fog 59 15 56 13.3 90 90 SE 3 6 30.09 1019 6 10 0.00 0.00
6:07 am 06:07 Mostly Cloudy with Mist and Fog 60 15.6 57 13.9 90 90 SE 3 6 30.12 1020 6 10 0.00 0.00
6:51 am 06:51 Cloudy with Mist and Fog 61 16 57 14 88 88 Calm 30.12 1020 4 6 0.00 0.00
6:53 am 06:53 Cloudy with Mist and Fog 61 16.1 58 14.4 90 90 Calm 30.09 1019 4 6 0.00 0.00
7:53 am 07:53 Cloudy with Mist and Fog 62 16.7 58 14.4 86 86 ESE 5 7 30.11 1020 4 6 0.00 0.00
8:12 am 08:12 Cloudy with Mist and Fog 62 16.7 58 14.4 86 86 ESE 6 9 30.12 1020 5 8 0.00 0.00
8:20 am 08:20 Cloudy with Mist and Fog 62 16.7 58 14.4 86 86 E 5 7 30.12 1020 5 8 0.00 0.00
8:41 am 08:41 Cloudy with Mist and Fog 63 17.2 59 15 87 87 E 7 11 30.12 1020 5 8 0.00 0.00
8:53 am 08:53 Cloudy with Mist and Fog 63 17.2 59 15 87 87 E 6 9 30.12 1020 6 10 0.00 0.00
9:09 am 09:09 Cloudy with Mist and Fog 63 17.2 59 15 87 87 E 6 9 30.12 1020 6 10 0.00 0.00
9:53 am 09:53 Cloudy 64 17.8 59 15 84 84 Calm 30.13 1020 8 13 0.00 0.00
10:26 am 10:26 Cloudy 65 18.3 59 15 81 81 SE 5 7 30.09 1019 8 13 0.00 0.00
10:53 am 10:53 Cloudy 66 18.9 59 15 78 78 SSE 5 7 30.12 1020 9 14 0.00 0.00
11:17 am 11:17 Cloudy 67 19.4 58 14.4 73 73 Calm 30.09 1019 10 16 0.00 0.00
11:53 am 11:53 Cloudy 69 20.6 58 14.4 68 68 VRB 3 6 30.12 1020 10 16 0.00 0.00
12:53 pm 12:53 Partly Cloudy 72 22.2 57 13.9 59 59 E 3 6 30.10 1019 10 16 0.00 0.00
1:32 pm 13:32 Mostly Cloudy 73 22.8 58 14.4 59 59 Calm 30.03 1017 10 16 0.00 0.00
1:53 pm 13:53 Mostly Cloudy 74 23.3 58 14.4 57 57 Calm 30.08 1019 10 16 0.00 0.00
2:03 pm 14:03 Partly Cloudy 74 23.3 57 13.9 56 56 Calm 30.03 1017 10 16 0.00 0.00
2:53 pm 14:53 Mostly Sunny 77 25 58 14.4 52 52 VRB 3 6 30.05 1018 10 16 0.00 0.00
3:53 pm 15:53 Sunny 78 25.6 58 14.4 50 50 Calm 30.02 1017 10 16 0.00 0.00
4:53 pm 16:53 Sunny 80 26.7 56 13.3 44 44 S 7 11 29.99 1016 10 16 0.00 0.00
5:53 pm 17:53 Sunny 80 26.7 57 13.9 45 45 S 8 13 29.97 1015 10 16 0.00 0.00
6:53 pm 18:53 Sunny 80 26.7 57 13.9 45 45 S 9 15 29.96 1015 10 16 0.00 0.00
7:53 pm 19:53 Sunny 79 26.1 56 13.3 45 45 SSE 12 19 29.96 1015 10 16 0.00 0.00
8:53 pm 20:53 Clear 76 24.4 56 13.3 50 50 S 10 17 29.97 1015 10 16 0.00 0.00
9:53 pm 21:53 Clear 75 23.9 57 13.9 54 54 S 10 17 29.97 1015 10 16 0.00 0.00
10:53 pm 22:53 Clear 73 22.8 56 13.3 55 55 S 9 15 29.98 1015 10 16 0.00 0.00
11:53 pm 23:53 Clear 71 21.7 57 13.9 61 61 SSE 9 15 29.99 1016 10 16 0.00 0.00

Powered by AerisWeather